Weather History for Marion, VA

Change the Weather History Date:

Monday, February 11, 2013

  Actual Average (KGEV) Record (KGEV)
Temperature  
Mean Temperature 49 °F -  
Max Temperature 53 °F 45 °F 64 °F (1993)
Min Temperature 45 °F 21 °F 1 °F (1980)
Degree Days  
Heating Degree Days 16    
Moisture  
Dew Point 43 °F    
Average Humidity 81    
Maximum Humidity 100    
Minimum Humidity 65    
Precipitation  
Precipitation 0.02 in - - ()
Sea Level Pressure  
Sea Level Pressure 30.01 in    
Wind  
Wind Speed 8 mph (WSW)    
Max Wind Speed 26 mph    
Max Gust Speed 32 mph    
Visibility 10 miles    
Events Rain    
Averages and records for this station are not official NWS values.
T = Trace of Precipitation, MM = Missing Value Source: NWS Daily Summary

Daily Weather History Graph

Daily Weather History Graph

Search for Another Location

Airport:

Trip Planner

Search our weather history database for the weather conditions in past years. The results will help you decide how hot, cold, wet, or windy it might be!

Date:

Astronomy

Feb. 11, 2013 Rise Set
Actual Time 7:18 AM EST 6:01 PM EST
Civil Twilight 6:51 AM EST 6:28 PM EST
Nautical Twilight 6:20 AM EST 6:59 PM EST
Astronomical Twilight 5:50 AM EST 7:29 PM EST
Moon 7:45 AM EST (2/11) 7:52 PM EST (2/11)
Length of Visible Light 11h 37m
Length of Day
10h 43m
Waxing Crescent, 3% of the Moon is Illuminated
Feb 11
Waxing Crescent
Feb 17
First Quarter
Feb 25
Full
Mar 4
Last Quarter
Mar 11
New

Hourly Weather History & Observations

Time (EST) Temp. Windchill Dew Point Humidity Pressure Visibility Wind Dir Wind Speed Gust Speed Precip Events Conditions
12:15 AM 46.4 °F 43.5 °F 41.4 °F 83% 30.08 in 10.0 mi East 5.8 mph - N/A   Overcast
12:35 AM 46.9 °F - 42.1 °F 83% 30.08 in 10.0 mi ENE 5.8 mph - N/A   Overcast
12:55 AM 48.9 °F - 43.3 °F 81% 30.08 in 10.0 mi Calm Calm - N/A   Overcast
1:15 AM 49.3 °F - 43.7 °F 81% 30.07 in 10.0 mi West 3.5 mph - N/A   Overcast
1:35 AM 49.5 °F - 43.9 °F 81% 30.07 in 10.0 mi WSW 6.9 mph - N/A   Mostly Cloudy
1:55 AM 50.4 °F - 44.6 °F 81% 30.07 in 10.0 mi South 5.8 mph - N/A   Mostly Cloudy
2:15 AM 52.3 °F - 45.5 °F 78% 30.05 in 10.0 mi SSW 3.5 mph - N/A   Overcast
2:35 AM 52.9 °F - 45.5 °F 76% 30.04 in 10.0 mi SW 4.6 mph - N/A   Overcast
2:55 AM 51.4 °F - 45.3 °F 80% 30.03 in 10.0 mi Calm Calm - N/A   Overcast
3:15 AM 51.6 °F - 45.5 °F 80% 30.03 in 10.0 mi Calm Calm - N/A   Overcast
3:35 AM 51.3 °F - 45.7 °F 81% 30.03 in 10.0 mi Calm Calm - N/A   Overcast
3:55 AM 49.6 °F - 45.3 °F 85% 30.02 in 10.0 mi ENE 3.5 mph - N/A   Overcast
4:15 AM 49.8 °F - 45.5 °F 85% 30.01 in 10.0 mi Calm Calm - N/A   Overcast
4:35 AM 50.2 °F - 45.5 °F 84% 30.01 in 10.0 mi Calm Calm - N/A Rain Light Rain
4:55 AM 49.1 °F - 45.1 °F 86% 30.01 in 10.0 mi Calm Calm - N/A   Mostly Cloudy
5:15 AM 48.7 °F - 46.0 °F 90% 30.02 in 10.0 mi Calm Calm - N/A Rain Rain
5:35 AM 49.3 °F - 47.8 °F 95% 30.03 in 10.0 mi Calm Calm - 0.01 in Rain Light Rain
5:55 AM 48.6 °F - 48.2 °F 99% 30.02 in 10.0 mi Calm Calm - 0.02 in Rain Light Rain
6:15 AM 48.2 °F - 48.2 °F 100% 30.01 in 10.0 mi Calm Calm - N/A   Overcast
6:55 AM 47.8 °F - 47.8 °F 100% 30.02 in 10.0 mi Calm Calm - N/A   Overcast
7:15 AM 47.7 °F - 47.7 °F 100% 30.02 in 10.0 mi Calm Calm - N/A   Overcast
7:35 AM 47.7 °F - 47.7 °F 100% 30.02 in 10.0 mi Calm Calm - N/A   Overcast
7:55 AM 47.7 °F - 47.7 °F 100% 30.02 in 10.0 mi Calm Calm - N/A   Overcast
8:15 AM 48.2 °F - 48.2 °F 100% 30.02 in 10.0 mi Calm Calm - N/A   Overcast
8:35 AM 48.7 °F - 48.7 °F 100% 30.02 in 7.0 mi Calm Calm - N/A Rain Light Rain
8:55 AM 50.7 °F - 50.7 °F 100% 30.02 in 10.0 mi Calm Calm - N/A   Overcast
9:15 AM - - - N/A% - - North - - N/A   Unknown
9:35 AM - - - N/A% - - North - - N/A   Unknown
9:55 AM - - - N/A% - - North - - N/A   Unknown
10:15 AM - - - N/A% - - North - - N/A   Unknown
10:35 AM - - - N/A% - - North - - N/A   Unknown
10:55 AM - - - N/A% - - North - - N/A   Unknown
11:15 AM - - - N/A% - - North - - N/A   Unknown
11:35 AM - - - N/A% - - North - - N/A   Unknown
11:55 AM - - - N/A% - - North - - N/A   Unknown
12:15 PM - - - N/A% - - North - - N/A   Unknown
12:35 PM - - - N/A% - - North - - N/A   Unknown
12:55 PM - - - N/A% - - North - - N/A   Unknown
1:15 PM - - - N/A% - - North - - N/A   Unknown
1:35 PM - - - N/A% - - North - - N/A   Unknown
1:55 PM - - - N/A% - - North - - N/A   Unknown
2:15 PM - - - N/A% - - North - - N/A   Unknown
2:35 PM - - - N/A% - - North - - N/A   Unknown
2:55 PM - - - N/A% - - North - - N/A   Unknown
3:15 PM - - - N/A% - - North - - N/A   Unknown
3:35 PM - - - N/A% - - North - - N/A   Unknown
3:55 PM 53.8 °F - 44.8 °F 72% 29.96 in 10.0 mi WSW 23.0 mph 31.1 mph N/A   Scattered Clouds
4:15 PM 53.8 °F - 45.0 °F 72% 29.97 in 10.0 mi West 21.9 mph 32.2 mph N/A   Scattered Clouds
4:35 PM 53.6 °F - 44.8 °F 72% 29.96 in 10.0 mi WSW 18.4 mph 25.3 mph N/A   Scattered Clouds
4:55 PM 53.1 °F - 45.0 °F 74% 29.96 in 10.0 mi WSW 13.8 mph 26.5 mph N/A   Scattered Clouds
5:55 PM 51.4 °F - 43.3 °F 74% 29.96 in 10.0 mi West 17.3 mph 26.5 mph N/A   Scattered Clouds
6:15 PM 50.9 °F - 42.8 °F 74% 29.96 in 10.0 mi West 18.4 mph 27.6 mph N/A   Clear
6:35 PM 50.4 °F - 41.9 °F 73% 29.97 in 10.0 mi West 20.7 mph 27.6 mph N/A   Clear
6:55 PM 49.8 °F - 41.0 °F 72% 29.97 in 10.0 mi WSW 24.2 mph 32.2 mph N/A   Clear
7:15 PM 49.5 °F - 40.5 °F 71% 29.98 in 10.0 mi West 18.4 mph 27.6 mph N/A   Clear
7:35 PM 49.1 °F - 40.3 °F 72% 29.98 in 10.0 mi West 20.7 mph 29.9 mph N/A   Clear
7:55 PM 48.6 °F - 40.1 °F 73% 29.98 in 10.0 mi West 21.9 mph 28.8 mph N/A   Clear
8:15 PM 48.4 °F - 40.6 °F 75% 29.99 in 10.0 mi West 21.9 mph 29.9 mph N/A   Clear
8:35 PM 48.0 °F - 41.0 °F 77% 29.99 in 10.0 mi West 20.7 mph 27.6 mph N/A   Clear
8:55 PM 48.0 °F - 40.6 °F 76% 30.00 in 10.0 mi West 17.3 mph 31.1 mph N/A   Clear
9:15 PM 47.7 °F - 40.1 °F 75% 30.00 in 10.0 mi West 20.7 mph 27.6 mph N/A   Clear
9:35 PM 47.5 °F - 39.4 °F 73% 30.00 in 10.0 mi West 20.7 mph 27.6 mph N/A   Clear
9:55 PM 46.8 °F - 39.2 °F 75% 29.99 in 10.0 mi West 20.7 mph 25.3 mph N/A   Clear
10:15 PM 46.8 °F - 37.8 °F 71% 30.00 in 10.0 mi West 24.2 mph 29.9 mph N/A   Clear
10:35 PM 46.2 °F 38.7 °F 36.9 °F 70% 30.01 in 10.0 mi West 19.6 mph 27.6 mph N/A   Clear
10:55 PM 45.9 °F 37.6 °F 35.8 °F 68% 30.01 in 10.0 mi West 23.0 mph 27.6 mph N/A   Clear
11:15 PM 45.5 °F 36.5 °F 35.4 °F 68% 30.02 in 10.0 mi West 26.5 mph 29.9 mph N/A   Clear
11:35 PM 45.7 °F 37.4 °F 34.5 °F 65% 30.01 in 10.0 mi West 23.0 mph - N/A   Clear
11:55 PM 45.0 °F 37.1 °F 34.0 °F 65% 30.02 in 10.0 mi West 19.6 mph 25.3 mph N/A   Clear